Date String (YYYY-MM-DD hh:mm:ss) UTC,Instrument flags,absolute air pressure of the measurement (hPa),sample flow rate (lpm),inlet stack bypass flow (lpm),air temperature of the measurement (°C),ambient temperature measured by the external sensor (°C),aerosol sample conditioner tube jacket temperature (°C),OPC LED temperature (°C),internal box temperature (°C),relative humidity of the measurement (%),span deviation,mass concentration of particles derived from Lorenz-Mie calculation of OPC scattering (μg/m³),mass concentration of particles derived from Lorenz-Mie calculation of OPC scattering (μg/m³),mass concentration of particles derived from Lorenz-Mie calculation of OPC scattering (μg/m³)
DateTimeUTC,F1_M11,P_M11,Q1_M11,Q2_M11,T1_M11,T2_M11,T3_M11,T4_M11,T5_M11,U1_M11,ZSPAN_M11,X0_M11,X2_M11,X1_M11
2024-02-19 03:00:00,SystemResetWarning,0823.3,5.01,000.00,019.5,018.7,000.0,028.0,021.2,17.1,0000.0,0000.93,0000.56,0000.40
2024-02-19 03:01:00,SystemResetWarning,0823.4,5.00,000.00,019.5,018.7,000.0,028.0,021.2,17.4,0000.0,0000.93,0000.55,0000.39
2024-02-19 03:02:00,SystemResetWarning,0823.4,4.99,000.00,019.5,018.6,000.0,028.0,021.2,18.0,0000.0,0000.96,0000.55,0000.39
2024-02-19 03:03:00,SystemResetWarning,0823.5,5.00,000.00,019.5,018.6,000.0,028.0,021.1,18.7,0000.0,0001.08,0000.57,0000.39
2024-02-19 03:04:00,SystemResetWarning,0823.6,5.02,000.00,019.5,018.6,000.0,027.9,021.1,19.0,0000.0,0001.06,0000.56,0000.40
2024-02-19 03:05:00,SystemResetWarning,0823.4,5.00,000.00,019.5,018.6,000.0,027.9,021.1,18.9,0000.0,0001.95,0000.55,0000.41
2024-02-19 03:06:00,SystemResetWarning,0823.5,4.99,000.00,019.5,018.6,000.0,027.9,021.1,18.5,0000.0,0004.74,0000.54,0000.40
2024-02-19 03:07:00,SystemResetWarning,0823.5,4.99,000.00,019.5,018.6,000.0,027.9,021.1,18.5,0000.0,0004.69,0000.52,0000.39
2024-02-19 03:08:00,SystemResetWarning,0823.5,5.00,000.00,019.4,018.6,000.0,027.9,021.1,18.7,0000.0,0004.65,0000.52,0000.40
2024-02-19 03:09:00,SystemResetWarning,0823.5,5.01,000.00,019.4,018.6,000.0,027.9,021.1,18.6,0000.0,0004.58,0000.50,0000.39
2024-02-19 03:10:00,SystemResetWarning,0823.7,5.01,000.00,019.4,018.6,000.0,027.9,021.1,18.1,0000.0,0004.60,0000.50,0000.38
2024-02-19 03:11:00,SystemResetWarning,0823.6,4.99,000.00,019.4,018.6,000.0,027.8,021.1,18.1,0000.0,0004.61,0000.51,0000.39
2024-02-19 03:12:00,SystemResetWarning,0823.7,4.99,000.00,019.4,018.6,000.0,027.8,021.1,18.1,0000.0,0004.80,0000.54,0000.39
2024-02-19 03:13:00,SystemResetWarning,0823.8,5.01,000.00,019.4,018.6,000.0,027.8,021.0,18.3,0000.0,0004.85,0000.56,0000.40
2024-02-19 03:14:00,SystemResetWarning,0823.8,5.02,000.00,019.4,018.5,000.0,027.8,021.0,18.4,0000.0,0004.73,0000.54,0000.39
2024-02-19 03:15:00,SystemResetWarning,0823.8,4.99,000.00,019.4,018.5,000.0,027.8,021.0,18.5,0000.0,0004.67,0000.51,0000.38
2024-02-19 03:16:00,SystemResetWarning,0823.8,4.99,000.00,019.4,018.5,000.0,027.8,021.0,18.6,0000.0,0004.59,0000.50,0000.37
2024-02-19 03:17:00,SystemResetWarning,0823.8,5.00,000.00,019.4,018.5,000.0,027.8,021.0,18.5,0000.0,0001.15,0000.48,0000.37
2024-02-19 03:18:00,SystemResetWarning,0823.8,5.01,000.00,019.3,018.6,000.0,027.8,021.0,18.5,0000.0,0001.55,0000.48,0000.37
2024-02-19 03:19:00,SystemResetWarning,0823.8,5.00,000.00,019.3,018.6,000.0,027.7,021.0,18.4,0000.0,0001.95,0000.49,0000.37
2024-02-19 03:20:00,SystemResetWarning,0823.9,5.00,000.00,019.3,018.6,000.0,027.7,021.0,18.1,0000.0,0001.93,0000.48,0000.36
2024-02-19 03:21:00,SystemResetWarning,0823.9,5.01,000.00,019.3,018.5,000.0,027.7,021.0,18.1,0000.0,0001.85,0000.46,0000.36
2024-02-19 03:22:00,SystemResetWarning,0823.9,5.00,000.00,019.3,018.5,000.0,027.7,020.9,18.3,0000.0,0001.94,0000.48,0000.37
2024-02-19 03:23:00,SystemResetWarning,0824.0,5.00,000.00,019.3,018.5,000.0,027.7,020.9,18.1,0000.0,0001.87,0000.48,0000.36
2024-02-19 03:24:00,SystemResetWarning,0824.0,4.99,000.00,019.3,018.5,000.0,027.7,020.9,18.3,0000.0,0001.83,0000.48,0000.36
2024-02-19 03:25:00,SystemResetWarning,0824.0,5.00,000.00,019.3,018.5,000.0,027.7,020.9,18.5,0000.0,0001.87,0000.50,0000.37
2024-02-19 03:26:00,SystemResetWarning,0824.0,5.00,000.00,019.3,018.5,000.0,027.7,020.9,18.5,0000.0,0002.01,0000.52,0000.37
2024-02-19 03:27:00,SystemResetWarning,0824.0,5.00,000.00,019.2,018.5,000.0,027.6,020.9,18.5,0000.0,0002.10,0000.53,0000.37
2024-02-19 03:28:00,SystemResetWarning,0824.0,5.00,000.00,019.2,018.5,000.0,027.6,020.9,18.5,0000.0,0002.21,0000.56,0000.37
2024-02-19 03:29:00,SystemResetWarning,0824.0,5.01,000.00,019.2,018.5,000.0,027.6,020.9,18.4,0000.0,0001.76,0000.58,0000.38
2024-02-19 03:30:00,SystemResetWarning,0824.1,5.00,000.00,019.2,018.5,000.0,027.6,020.9,18.3,0000.0,0001.30,0000.58,0000.38
2024-02-19 03:31:00,SystemResetWarning,0824.1,5.00,000.00,019.2,018.5,000.0,027.6,020.8,18.5,0000.0,0001.32,0000.59,0000.39
2024-02-19 03:32:00,SystemResetWarning,0824.2,4.99,000.00,019.2,018.5,000.0,027.6,020.8,18.5,0000.0,0002.32,0000.60,0000.39
2024-02-19 03:33:00,SystemResetWarning,0824.3,4.99,000.00,019.2,018.5,000.0,027.6,020.8,18.5,0000.0,0003.09,0000.61,0000.39
2024-02-19 03:34:00,SystemResetWarning,0824.3,5.00,000.00,019.2,018.5,000.0,027.6,020.8,18.3,0000.0,0003.09,0000.58,0000.39
2024-02-19 03:35:00,SystemResetWarning,0824.3,5.00,000.00,019.2,018.5,000.0,027.5,020.8,18.2,0000.0,0003.07,0000.57,0000.39
2024-02-19 03:36:00,SystemResetWarning,0824.3,5.00,000.00,019.2,018.5,000.0,027.5,020.8,18.2,0000.0,0003.03,0000.55,0000.39
2024-02-19 03:37:00,SystemResetWarning,0824.3,5.00,000.00,019.1,018.5,000.0,027.5,020.8,18.0,0000.0,0003.02,0000.57,0000.39
2024-02-19 03:38:00,SystemResetWarning,0824.3,5.01,000.00,019.1,018.5,000.0,027.5,020.8,17.8,0000.0,0002.91,0000.55,0000.39
2024-02-19 03:39:00,SystemResetWarning,0824.3,5.00,000.00,019.1,018.5,000.0,027.5,020.8,18.1,0000.0,0002.80,0000.54,0000.39
2024-02-19 03:40:00,SystemResetWarning,0824.3,5.00,000.00,019.1,018.4,000.0,027.5,020.8,18.0,0000.0,0002.79,0000.53,0000.39
2024-02-19 03:41:00,SystemResetWarning,0824.4,4.99,000.00,019.1,018.4,000.0,027.5,020.8,18.0,0000.0,0002.72,0000.52,0000.39
2024-02-19 03:42:00,SystemResetWarning,0824.4,5.01,000.00,019.1,018.4,000.0,027.5,020.8,18.2,0000.0,0002.69,0000.53,0000.39
2024-02-19 03:43:00,SystemResetWarning,0824.3,5.01,000.00,019.1,018.4,000.0,027.5,020.8,18.4,0000.0,0001.94,0000.54,0000.38
2024-02-19 03:44:00,SystemResetWarning,0824.3,4.99,000.00,019.1,018.4,000.0,027.5,020.8,18.3,0000.0,0000.97,0000.53,0000.38
2024-02-19 03:45:00,SystemResetWarning,0824.3,4.99,000.00,019.1,018.4,000.0,027.4,020.7,18.3,0000.0,0000.83,0000.51,0000.38
2024-02-19 03:46:00,SystemResetWarning,0824.2,5.00,000.00,019.1,018.4,000.0,027.4,020.7,18.5,0000.0,0000.81,0000.52,0000.38
2024-02-19 03:47:00,SystemResetWarning,0824.0,5.00,000.00,019.1,018.4,000.0,027.4,020.7,18.1,0000.0,0000.81,0000.52,0000.38
2024-02-19 03:48:00,SystemResetWarning,0824.0,5.01,000.00,019.1,018.4,000.0,027.4,020.7,18.3,0000.0,0000.78,0000.50,0000.38
2024-02-19 03:49:00,SystemResetWarning,0824.0,5.00,000.00,019.1,018.4,000.0,027.4,020.7,18.5,0000.0,0000.78,0000.49,0000.37
2024-02-19 03:50:00,SystemResetWarning,0824.0,5.00,000.00,019.1,018.4,000.0,027.4,020.7,18.5,0000.0,0000.76,0000.48,0000.37
2024-02-19 03:51:00,SystemResetWarning,0824.0,4.99,000.00,019.0,018.4,000.0,027.4,020.7,18.6,0000.0,0000.71,0000.47,0000.37
2024-02-19 03:52:00,SystemResetWarning,0824.0,4.99,000.00,019.0,018.4,000.0,027.4,020.7,18.8,0000.0,0000.69,0000.45,0000.36
2024-02-19 03:53:00,SystemResetWarning,0824.1,5.00,000.00,019.0,018.4,000.0,027.4,020.7,18.9,0000.0,0000.66,0000.43,0000.36
2024-02-19 03:54:00,SystemResetWarning,0824.0,5.01,000.00,019.0,018.4,000.0,027.4,020.7,19.0,0000.0,0000.65,0000.42,0000.35
2024-02-19 03:55:00,SystemResetWarning,0824.0,5.01,000.00,019.0,018.4,000.0,027.4,020.7,18.8,0000.0,0000.83,0000.42,0000.36
2024-02-19 03:56:00,SystemResetWarning,0824.0,4.99,000.00,019.0,018.4,000.0,027.4,020.7,18.7,0000.0,0000.85,0000.43,0000.36
2024-02-19 03:57:00,SystemResetWarning,0824.0,4.99,000.00,019.0,018.4,000.0,027.4,020.7,18.7,0000.0,0000.84,0000.42,0000.35
2024-02-19 03:58:00,SystemResetWarning,0823.9,5.00,000.00,019.0,018.4,000.0,027.3,020.7,18.3,0000.0,0000.83,0000.42,0000.35
2024-02-19 03:59:00,SystemResetWarning,0823.9,5.00,000.00,019.0,018.4,000.0,027.3,020.7,17.9,0000.0,0000.79,0000.40,0000.34
